QPF
0.00 0.00 0.00 0.00 0.00 0.00 0.00 0.00 0.00 0.00 0.00 0.00 0.00 0.00 0.00 0.00 0.00 0.00 0.00 0.00 0.00 0.00 0.00 0.00 0.00 0.00 0.01 0.01 0.01 0.01 0.00 0.01 0.02 0.04 0.04 0.04 0.03 0.02 0.02 0.02 0.01 0.02 0.02 0.02 0.01 0.01 0.01 0.01 0.01 0.01 0.01 0.01 0.01 0.01 0.01 0.01 0.02 0.02 0.02 0.01 0.01 0.01 0.01 0.01 0.01 0.01 0.02 0.02 0.01
0.00 0.00 0.00 0.00 0.00 0.00 0.00 0.00 0.00 0.00 0.00 0.00 0.00 0.00 0.00 0.00 0.00 0.00 0.00 0.00 0.00 0.00 0.00 0.00 0.00 0.00 0.00 0.00 0.01 0.01 0.01 0.01 0.02 0.03 0.04 0.04 0.03 0.03 0.02 0.02 0.01 0.01 0.02 0.01 0.01 0.01 0.01 0.01 0.01 0.01 0.02 0.01 0.01 0.01 0.01 0.02 0.02 0.02 0.02 0.02 0.02 0.01 0.01 0.01 0.01 0.01 0.01 0.02 0.01
0.00 0.00 0.00 0.00 0.00 0.00 0.00 0.00 0.00 0.00 0.00 0.00 0.00 0.00 0.00 0.00 0.00 0.00 0.00 0.00 0.00 0.00 0.00 0.00 0.00 0.00 0.00 0.00 0.01 0.01 0.02 0.02 0.02 0.03 0.04 0.05 0.04 0.03 0.02 0.02 0.02 0.01 0.01 0.01 0.01 0.01 0.01 0.01 0.01 0.01 0.02 0.02 0.02 0.02 0.02 0.02 0.02 0.02 0.02 0.02 0.02 0.02 0.02 0.01 0.01 0.01 0.01 0.02 0.02
0.00 0.00 0.00 0.00 0.00 0.00 0.00 0.00 0.00 0.00 0.00 0.00 0.00 0.00 0.00 0.00 0.00 0.00 0.00 0.00 0.00 0.00 0.00 0.00 0.00 0.00 0.00 0.00 0.00 0.01 0.02 0.03 0.03 0.03 0.03 0.03 0.04 0.03 0.03 0.02 0.02 0.02 0.01 0.01 0.01 0.01 0.01 0.01 0.01 0.01 0.01 0.02 0.02 0.02 0.02 0.02 0.02 0.02 0.02 0.02 0.02 0.02 0.02 0.02 0.01 0.02 0.02 0.02 0.02
0.00 0.00 0.00 0.00 0.00 0.00 0.00 0.00 0.00 0.00 0.00 0.00 0.01 0.00 0.00 0.00 0.00 0.00 0.00 0.00 0.00 0.00 0.00 0.00 0.00 0.00 0.00 0.00 0.00 0.01 0.02 0.03 0.04 0.04 0.03 0.03 0.03 0.03 0.03 0.02 0.02 0.02 0.01 0.01 0.01 0.01 0.01 0.01 0.01 0.01 0.02 0.01 0.01 0.02 0.02 0.02 0.02 0.02 0.02 0.02 0.02 0.02 0.02 0.02 0.02 0.02 0.02 0.02 0.02
0.00 0.00 0.00 0.00 0.00 0.00 0.00 0.00 0.00 0.00 0.00 0.00 0.00 0.00 0.00 0.00 0.00 0.00 0.00 0.00 0.00 0.00 0.00 0.00 0.00 0.00 0.00 0.00 0.00 0.00 0.01 0.03 0.05 0.05 0.05 0.03 0.02 0.02 0.02 0.03 0.02 0.02 0.02 0.01 0.01 0.01 0.01 0.01 0.01 0.01 0.02 0.02 0.01 0.01 0.01 0.01 0.01 0.02 0.02 0.03 0.03 0.02 0.02 0.03 0.03 0.03 0.03 0.03 0.03
0.01 0.01 0.01 0.00 0.00 0.00 0.00 0.00 0.00 0.00 0.00 0.00 0.00 0.00 0.00 0.00 0.00 0.00 0.00 0.00 0.00 0.00 0.00 0.00 0.00 0.00 0.00 0.00 0.00 0.00 0.01 0.02 0.04 0.05 0.06 0.05 0.04 0.02 0.02 0.02 0.02 0.02 0.02 0.01 0.01 0.02 0.01 0.01 0.01 0.01 0.02 0.02 0.02 0.01 0.01 0.01 0.01 0.02 0.02 0.03 0.03 0.02 0.02 0.03 0.03 0.03 0.03 0.03 0.03
0.02 0.02 0.03 0.04 0.03 0.01 0.00 0.00 0.00 0.00 0.00 0.00 0.00 0.00 0.00 0.00 0.00 0.00 0.00 0.00 0.00 0.00 0.00 0.00 0.00 0.00 0.00 0.00 0.00 0.00 0.00 0.01 0.03 0.04 0.06 0.06 0.05 0.03 0.01 0.02 0.02 0.02 0.02 0.01 0.02 0.02 0.02 0.02 0.01 0.01 0.02 0.02 0.02 0.02 0.02 0.02 0.02 0.02 0.02 0.02 0.02 0.02 0.02 0.02 0.03 0.03 0.03 0.03 0.03
0.04 0.04 0.05 0.08 0.08 0.06 0.03 0.01 0.00 0.00 0.00 0.00 0.00 0.00 0.00 0.00 0.00 0.00 0.00 0.00 0.00 0.00 0.00 0.00 0.00 0.00 0.00 0.00 0.00 0.00 0.00 0.01 0.02 0.03 0.04 0.06 0.06 0.04 0.02 0.02 0.02 0.02 0.02 0.01 0.02 0.02 0.02 0.02 0.02 0.01 0.01 0.02 0.02 0.02 0.02 0.02 0.02 0.02 0.03 0.02 0.02 0.02 0.02 0.02 0.02 0.02 0.03 0.02 0.02
0.06 0.05 0.07 0.11 0.14 0.13 0.10 0.06 0.03 0.01 0.00 0.00 0.00 0.00 0.00 0.00 0.00 0.00 0.00 0.00 0.00 0.00 0.00 0.00 0.00 0.00 0.00 0.00 0.00 0.00 0.00 0.00 0.01 0.02 0.03 0.04 0.05 0.04 0.03 0.02 0.02 0.02 0.02 0.02 0.02 0.02 0.02 0.02 0.02 0.02 0.01 0.01 0.01 0.02 0.02 0.02 0.03 0.03 0.03 0.03 0.02 0.02 0.02 0.02 0.02 0.02 0.02 0.02 0.02
0.07 0.09 0.12 0.13 0.16 0.16 0.15 0.15 0.12 0.08 0.03 0.01 0.00 0.00 0.00 0.00 0.00 0.00 0.00 0.00 0.00 0.00 0.00 0.00 0.00 0.00 0.00 0.00 0.00 0.00 0.00 0.00 0.01 0.01 0.02 0.03 0.03 0.04 0.03 0.02 0.02 0.02 0.02 0.02 0.02 0.02 0.02 0.02 0.02 0.02 0.02 0.02 0.01 0.01 0.01 0.03 0.03 0.03 0.03 0.03 0.02 0.02 0.02 0.02 0.02 0.02 0.02 0.02 0.02
0.11 0.13 0.16 0.17 0.20 0.21 0.21 0.19 0.18 0.12 0.06 0.04 0.01 0.00 0.00 0.00 0.00 0.00 0.00 0.00 0.00 0.00 0.00 0.00 0.00 0.00 0.00 0.00 0.00 0.00 0.00 0.00 0.01 0.01 0.02 0.02 0.02 0.02 0.02 0.02 0.02 0.02 0.02 0.02 0.02 0.02 0.02 0.02 0.02 0.02 0.02 0.02 0.01 0.01 0.02 0.03 0.03 0.03 0.03 0.02 0.02 0.02 0.02 0.02 0.02 0.02 0.02 0.01 0.01
0.14 0.16 0.19 0.19 0.22 0.23 0.24 0.25 0.22 0.15 0.08 0.05 0.01 0.00 0.00 0.00 0.00 0.00 0.00 0.00 0.00 0.00 0.00 0.00 0.00 0.00 0.00 0.00 0.00 0.00 0.00 0.00 0.00 0.01 0.01 0.02 0.02 0.02 0.02 0.02 0.01 0.02 0.02 0.02 0.02 0.02 0.02 0.02 0.02 0.02 0.02 0.02 0.02 0.02 0.02 0.01 0.02 0.02 0.03 0.02 0.02 0.02 0.02 0.02 0.02 0.01 0.01 0.01 0.01
0.14 0.17 0.20 0.20 0.23 0.25 0.25 0.26 0.23 0.17 0.10 0.07 0.02 0.01 0.00 0.00 0.00 0.00 0.00 0.00 0.00 0.00 0.00 0.00 0.00 0.00 0.00 0.00 0.00 0.00 0.00 0.00 0.00 0.00 0.01 0.01 0.02 0.02 0.01 0.01 0.01 0.01 0.02 0.02 0.02 0.02 0.02 0.02 0.02 0.02 0.02 0.02 0.02 0.02 0.02 0.01 0.01 0.02 0.02 0.02 0.02 0.02 0.02 0.01 0.01 0.01 0.01 0.01 0.02
0.15 0.18 0.20 0.19 0.22 0.24 0.24 0.23 0.22 0.18 0.12 0.07 0.03 0.01 0.00 0.00 0.00 0.00 0.00 0.00 0.00 0.00 0.00 0.00 0.00 0.00 0.00 0.00 0.00 0.01 0.01 0.01 0.00 0.00 0.01 0.01 0.01 0.02 0.02 0.01 0.01 0.01 0.01 0.02 0.02 0.02 0.02 0.02 0.02 0.02 0.02 0.02 0.02 0.02 0.01 0.01 0.01 0.01 0.01 0.01 0.01 0.01 0.01 0.01 0.01 0.01 0.01 0.01 0.02
0.12 0.17 0.21 0.20 0.20 0.20 0.21 0.21 0.20 0.17 0.13 0.06 0.02 0.01 0.00 0.00 0.00 0.00 0.00 0.00 0.00 0.00 0.00 0.00 0.00 0.00 0.00 0.00 0.00 0.01 0.01 0.02 0.01 0.01 0.01 0.01 0.01 0.01 0.02 0.02 0.01 0.01 0.01 0.02 0.02 0.02 0.01 0.01 0.02 0.02 0.02 0.02 0.02 0.01 0.01 0.01 0.01 0.01 0.01 0.01 0.01 0.01 0.01 0.01 0.01 0.01 0.01 0.02 0.02
0.15 0.18 0.20 0.21 0.20 0.20 0.19 0.20 0.17 0.15 0.12 0.07 0.04 0.01 0.00 0.00 0.00 0.00 0.00 0.00 0.00 0.00 0.00 0.00 0.00 0.00 0.00 0.00 0.00 0.01 0.02 0.03 0.03 0.02 0.01 0.01 0.01 0.01 0.01 0.01 0.01 0.01 0.02 0.02 0.02 0.02 0.02 0.02 0.02 0.02 0.02 0.02 0.01 0.01 0.01 0.01 0.01 0.01 0.01 0.01 0.01 0.01 0.00 0.00 0.01 0.01 0.02 0.02 0.03
0.19 0.23 0.23 0.20 0.20 0.19 0.18 0.18 0.15 0.13 0.10 0.07 0.05 0.02 0.00 0.00 0.00 0.00 0.00 0.00 0.00 0.00 0.00 0.00 0.00 0.00 0.00 0.00 0.00 0.01 0.03 0.04 0.05 0.04 0.03 0.01 0.01 0.01 0.01 0.01 0.01 0.02 0.02 0.02 0.02 0.02 0.02 0.02 0.02 0.02 0.02 0.02 0.01 0.01 0.01 0.01 0.01 0.00 0.00 0.00 0.00 0.00 0.00 0.00 0.01 0.01 0.02 0.02 0.02
0.15 0.23 0.25 0.23 0.20 0.18 0.17 0.19 0.19 0.15 0.11 0.08 0.06 0.04 0.02 0.00 0.00 0.00 0.00 0.00 0.00 0.00 0.00 0.01 0.01 0.00 0.00 0.00 0.00 0.01 0.03 0.05 0.05 0.06 0.05 0.02 0.01 0.01 0.01 0.01 0.01 0.02 0.02 0.03 0.02 0.02 0.01 0.02 0.02 0.02 0.02 0.02 0.02 0.02 0.01 0.01 0.01 0.00 0.00 0.00 0.00 0.00 0.00 0.01 0.01 0.01 0.01 0.02 0.02
0.09 0.16 0.20 0.21 0.19 0.18 0.19 0.21 0.22 0.20 0.16 0.14 0.11 0.08 0.04 0.00 0.00 0.00 0.00 0.00 0.00 0.00 0.00 0.01 0.02 0.01 0.01 0.00 0.00 0.02 0.04 0.05 0.07 0.09 0.10 0.08 0.03 0.01 0.01 0.01 0.01 0.02 0.02 0.02 0.02 0.02 0.02 0.02 0.02 0.02 0.02 0.02 0.02 0.02 0.01 0.01 0.01 0.01 0.01 0.00 0.00 0.00 0.01 0.01 0.01 0.01 0.01 0.02 0.02
0.07 0.12 0.14 0.15 0.15 0.16 0.17 0.19 0.21 0.21 0.20 0.19 0.15 0.11 0.05 0.01 0.00 0.00 0.00 0.00 0.00 0.01 0.02 0.02 0.03 0.02 0.01 0.00 0.00 0.02 0.03 0.05 0.12 0.14 0.13 0.11 0.05 0.02 0.01 0.02 0.02 0.02 0.02 0.02 0.02 0.02 0.02 0.02 0.02 0.02 0.02 0.01 0.01 0.01 0.01 0.01 0.01 0.01 0.01 0.01 0.01 0.01 0.01 0.01 0.02 0.02 0.02 0.03 0.04
0.10 0.16 0.21 0.24 0.24 0.24 0.24 0.25 0.23 0.21 0.20 0.20 0.16 0.10 0.06 0.01 0.00 0.00 0.00 0.00 0.00 0.01 0.02 0.03 0.03 0.03 0.02 0.01 0.00 0.01 0.03 0.07 0.13 0.15 0.15 0.12 0.08 0.05 0.03 0.04 0.04 0.03 0.02 0.02 0.02 0.02 0.02 0.02 0.02 0.01 0.01 0.01 0.01 0.01 0.01 0.02 0.02 0.01 0.01 0.01 0.01 0.01 0.01 0.02 0.03 0.03 0.04 0.04 0.06
0.09 0.17 0.24 0.27 0.28 0.30 0.30 0.31 0.26 0.23 0.20 0.19 0.17 0.13 0.08 0.00 0.00 0.00 0.00 0.01 0.02 0.01 0.01 0.01 0.01 0.02 0.02 0.01 0.01 0.01 0.04 0.09 0.20 0.24 0.23 0.21 0.20 0.16 0.13 0.10 0.07 0.05 0.03 0.02 0.02 0.02 0.02 0.02 0.02 0.02 0.02 0.02 0.02 0.02 0.02 0.02 0.02 0.02 0.01 0.01 0.01 0.02 0.03 0.03 0.04 0.04 0.05 0.05 0.07
0.12 0.18 0.24 0.27 0.27 0.29 0.33 0.37 0.34 0.29 0.24 0.20 0.18 0.15 0.09 0.01 0.01 0.01 0.02 0.03 0.03 0.02 0.01 0.01 0.01 0.01 0.02 0.02 0.02 0.02 0.07 0.16 0.25 0.30 0.31 0.29 0.26 0.23 0.17 0.10 0.08 0.06 0.04 0.03 0.02 0.02 0.02 0.03 0.03 0.03 0.02 0.02 0.02 0.02 0.02 0.02 0.02 0.02 0.02 0.02 0.02 0.03 0.05 0.05 0.05 0.05 0.06 0.07 0.08
0.14 0.19 0.23 0.26 0.27 0.28 0.31 0.36 0.42 0.39 0.31 0.23 0.18 0.13 0.08 0.01 0.01 0.02 0.03 0.05 0.06 0.05 0.04 0.02 0.01 0.01 0.02 0.04 0.05 0.07 0.13 0.23 0.28 0.31 0.30 0.24 0.22 0.18 0.14 0.10 0.07 0.06 0.05 0.04 0.03 0.02 0.02 0.02 0.03 0.02 0.02 0.02 0.02 0.03 0.03 0.03 0.03 0.03 0.03 0.03 0.03 0.05 0.07 0.07 0.06 0.06 0.06 0.07 0.08
0.13 0.18 0.22 0.25 0.26 0.28 0.30 0.32 0.41 0.41 0.35 0.23 0.16 0.10 0.06 0.01 0.01 0.02 0.05 0.10 0.09 0.08 0.07 0.05 0.04 0.03 0.03 0.05 0.07 0.18 0.30 0.31 0.32 0.29 0.23 0.17 0.15 0.13 0.12 0.11 0.08 0.07 0.06 0.04 0.03 0.03 0.02 0.02 0.03 0.03 0.03 0.04 0.05 0.06 0.07 0.07 0.07 0.06 0.06 0.07 0.07 0.07 0.07 0.07 0.06 0.06 0.07 0.07 0.08
0.14 0.21 0.25 0.28 0.28 0.28 0.27 0.25 0.31 0.33 0.32 0.27 0.16 0.09 0.04 0.01 0.01 0.04 0.09 0.16 0.16 0.15 0.12 0.09 0.07 0.05 0.05 0.08 0.11 0.14 0.19 0.30 0.31 0.28 0.22 0.14 0.10 0.08 0.08 0.07 0.07 0.06 0.05 0.05 0.04 0.04 0.03 0.03 0.05 0.06 0.06 0.07 0.09 0.10 0.10 0.10 0.09 0.09 0.08 0.08 0.06 0.05 0.04 0.04 0.05 0.06 0.06 0.07 0.07
0.16 0.21 0.25 0.31 0.33 0.31 0.29 0.30 0.32 0.31 0.28 0.24 0.17 0.11 0.06 0.01 0.02 0.05 0.09 0.14 0.18 0.22 0.21 0.16 0.10 0.12 0.20 0.26 0.28 0.29 0.29 0.26 0.20 0.19 0.20 0.21 0.15 0.10 0.07 0.05 0.05 0.06 0.06 0.06 0.06 0.06 0.07 0.10 0.10 0.10 0.11 0.12 0.13 0.11 0.09 0.09 0.08 0.07 0.07 0.06 0.11 0.11 0.08 0.06 0.04 0.04 0.06 0.06 0.07
0.15 0.18 0.22 0.28 0.31 0.32 0.33 0.33 0.41 0.42 0.38 0.32 0.24 0.17 0.11 0.05 0.04 0.04 0.08 0.16 0.22 0.24 0.24 0.21 0.20 0.22 0.27 0.33 0.33 0.33 0.29 0.19 0.13 0.14 0.19 0.25 0.22 0.18 0.12 0.06 0.05 0.06 0.08 0.14 0.12 0.11 0.11 0.14 0.13 0.12 0.12 0.12 0.13 0.16 0.17 0.15 0.14 0.15 0.15 0.15 0.09 0.08 0.09 0.09 0.10 0.09 0.08 0.05 0.06
0.02 0.08 0.14 0.16 0.18 0.20 0.23 0.25 0.34 0.40 0.43 0.43 0.36 0.27 0.17 0.08 0.05 0.05 0.07 0.13 0.25 0.26 0.22 0.16 0.23 0.28 0.31 0.37 0.37 0.34 0.30 0.25 0.17 0.16 0.19 0.23 0.21 0.17 0.13 0.07 0.05 0.05 0.08 0.15 0.14 0.15 0.15 0.15 0.14 0.14 0.13 0.12 0.12 0.11 0.10 0.09 0.08 0.07 0.06 0.04 0.04 0.04 0.04 0.04 0.05 0.07 0.09 0.11 0.09
0.04 0.15 0.28 0.40 0.30 0.24 0.21 0.19 0.19 0.24 0.32 0.39 0.45 0.37 0.24 0.14 0.09 0.08 0.12 0.26 0.32 0.34 0.34 0.37 0.37 0.39 0.40 0.41 0.39 0.34 0.28 0.20 0.23 0.21 0.16 0.11 0.10 0.08 0.07 0.05 0.04 0.06 0.08 0.10 0.11 0.10 0.09 0.10 0.10 0.09 0.08 0.07 0.08 0.07 0.06 0.05 0.05 0.04 0.03 0.03 0.02 0.02 0.02 0.02 0.03 0.03 0.05 0.07 0.10
0.05 0.16 0.31 0.46 0.55 0.55 0.52 0.49 0.31 0.25 0.29 0.38 0.47 0.47 0.41 0.33 0.26 0.28 0.34 0.39 0.41 0.44 0.47 0.50 0.49 0.49 0.48 0.45 0.36 0.30 0.25 0.22 0.16 0.11 0.06 0.06 0.07 0.08 0.07 0.07 0.06 0.07 0.07 0.06 0.05 0.05 0.06 0.07 0.07 0.07 0.06 0.05 0.04 0.04 0.04 0.04 0.04 0.03 0.03 0.02 0.02 0.02 0.01 0.01 0.02 0.03 0.04 0.06 0.09
0.06 0.17 0.30 0.45 0.57 0.63 0.66 0.70 0.71 0.67 0.60 0.56 0.59 0.56 0.51 0.46 0.46 0.48 0.53 0.60 0.63 0.61 0.57 0.55 0.54 0.52 0.45 0.31 0.17 0.09 0.05 0.05 0.05 0.05 0.04 0.05 0.07 0.08 0.08 0.07 0.07 0.06 0.05 0.04 0.03 0.03 0.04 0.06 0.06 0.05 0.04 0.04 0.03 0.02 0.02 0.02 0.02 0.02 0.02 0.02 0.02 0.01 0.01 0.01 0.01 0.02 0.04 0.06 0.06
0.06 0.15 0.26 0.40 0.50 0.58 0.67 0.77 0.89 0.91 0.87 0.83 0.80 0.73 0.66 0.61 0.67 0.69 0.68 0.67 0.67 0.59 0.48 0.36 0.23 0.15 0.10 0.07 0.05 0.04 0.04 0.04 0.05 0.05 0.05 0.06 0.08 0.08 0.08 0.06 0.07 0.07 0.06 0.06 0.03 0.03 0.03 0.04 0.05 0.05 0.04 0.04 0.02 0.02 0.01 0.01 0.01 0.01 0.01 0.01 0.02 0.02 0.01 0.01 0.01 0.02 0.03 0.04 0.04
0.03 0.10 0.20 0.31 0.39 0.48 0.57 0.66 0.88 0.95 0.97 0.99 1.05 1.03 0.92 0.73 0.68 0.64 0.59 0.50 0.43 0.33 0.24 0.19 0.12 0.08 0.05 0.03 0.03 0.04 0.04 0.05 0.06 0.06 0.06 0.05 0.06 0.08 0.09 0.07 0.07 0.07 0.07 0.07 0.05 0.04 0.04 0.03 0.04 0.05 0.04 0.04 0.03 0.02 0.01 0.01 0.01 0.01 0.01 0.01 0.01 0.02 0.02 0.02 0.02 0.02 0.02 0.03 0.03
0.02 0.05 0.12 0.21 0.30 0.36 0.45 0.60 0.82 0.95 1.03 1.12 1.23 1.17 0.99 0.71 0.51 0.39 0.34 0.32 0.30 0.24 0.17 0.11 0.07 0.04 0.03 0.03 0.04 0.05 0.06 0.06 0.07 0.07 0.06 0.05 0.05 0.07 0.08 0.08 0.08 0.07 0.08 0.08 0.07 0.06 0.05 0.04 0.04 0.04 0.05 0.04 0.03 0.03 0.02 0.01 0.02 0.02 0.02 0.02 0.02 0.03 0.03 0.03 0.03 0.02 0.02 0.03 0.03
0.01 0.03 0.07 0.12 0.20 0.25 0.35 0.60 0.78 0.98 1.15 1.27 1.28 1.15 0.91 0.57 0.36 0.27 0.23 0.18 0.18 0.18 0.16 0.07 0.05 0.04 0.03 0.03 0.06 0.07 0.08 0.07 0.08 0.07 0.06 0.05 0.04 0.04 0.05 0.06 0.06 0.07 0.08 0.08 0.07 0.06 0.05 0.04 0.04 0.04 0.04 0.04 0.04 0.03 0.02 0.02 0.03 0.03 0.03 0.04 0.04 0.05 0.06 0.06 0.06 0.05 0.05 0.06 0.05
0.02 0.02 0.04 0.09 0.15 0.19 0.28 0.50 0.75 1.06 1.27 1.26 1.15 1.01 0.80 0.47 0.28 0.19 0.15 0.11 0.09 0.11 0.11 0.05 0.04 0.03 0.03 0.04 0.06 0.08 0.09 0.09 0.08 0.07 0.05 0.04 0.03 0.02 0.03 0.04 0.06 0.07 0.07 0.07 0.06 0.05 0.05 0.05 0.04 0.04 0.04 0.04 0.03 0.03 0.03 0.03 0.04 0.05 0.05 0.05 0.06 0.06 0.07 0.08 0.09 0.09 0.08 0.08 0.08
0.02 0.02 0.04 0.10 0.18 0.23 0.33 0.56 0.84 1.00 1.08 1.10 1.07 0.95 0.75 0.45 0.25 0.14 0.09 0.07 0.07 0.07 0.07 0.05 0.05 0.04 0.03 0.04 0.06 0.08 0.09 0.08 0.08 0.06 0.04 0.04 0.03 0.03 0.03 0.03 0.05 0.06 0.07 0.06 0.06 0.05 0.05 0.04 0.04 0.04 0.03 0.03 0.03 0.03 0.03 0.03 0.04 0.05 0.06 0.06 0.07 0.07 0.07 0.08 0.09 0.09 0.08 0.08 0.07
0.01 0.02 0.05 0.13 0.24 0.33 0.52 0.94 0.90 0.80 0.76 0.89 1.00 0.97 0.82 0.58 0.32 0.17 0.09 0.06 0.06 0.07 0.07 0.05 0.05 0.04 0.03 0.03 0.05 0.07 0.08 0.08 0.08 0.07 0.04 0.04 0.04 0.04 0.05 0.05 0.05 0.06 0.06 0.06 0.06 0.05 0.05 0.04 0.04 0.03 0.03 0.02 0.02 0.02 0.02 0.03 0.03 0.04 0.05 0.06 0.06 0.07 0.07 0.07 0.08 0.07 0.06 0.06 0.06
0.01 0.01 0.05 0.14 0.27 0.42 0.73 1.32 0.89 0.62 0.54 0.67 0.91 1.04 1.01 0.78 0.49 0.29 0.16 0.08 0.06 0.06 0.06 0.04 0.05 0.04 0.03 0.03 0.05 0.07 0.09 0.08 0.10 0.08 0.05 0.04 0.05 0.06 0.06 0.06 0.05 0.05 0.05 0.05 0.05 0.05 0.04 0.04 0.03 0.03 0.03 0.03 0.03 0.03 0.03 0.03 0.03 0.03 0.04 0.04 0.04 0.05 0.05 0.05 0.06 0.05 0.04 0.05 0.05
MSLP
996.03 996.23 996.47 996.67 996.91 997.11 997.27 997.47 997.55 997.67 997.83 998.03 998.23 998.47 998.67 998.91 999.23 999.47 999.67 999.91 1000.11 1000.35 1000.59 1000.91 1001.11 1001.23 1001.35 1001.59 1001.71 1001.99 1002.23 1002.39 1002.67 1002.91 1003.11 1003.27 1003.39 1003.55 1003.67 1003.83 1004.11 1004.39 1004.79 1005.03 1005.27 1005.55 1005.79 1006.03 1006.35 1006.59 1006.79 1006.95 1007.23 1007.39 1007.59 1007.71 1007.91 1008.11 1008.27 1008.39 1008.55 1008.71 1008.83 1008.95 1009.11 1009.23 1009.35 1009.47 1009.67
995.71 995.83 996.11 996.35 996.55 996.79 996.95 997.15 997.35 997.47 997.59 997.67 997.83 998.03 998.27 998.55 998.79 999.03 999.27 999.59 999.71 999.99 1000.27 1000.59 1000.79 1000.95 1001.15 1001.35 1001.55 1001.71 1001.91 1002.11 1002.39 1002.71 1002.91 1003.11 1003.23 1003.35 1003.55 1003.71 1003.91 1004.23 1004.55 1004.83 1005.15 1005.39 1005.67 1005.83 1006.15 1006.39 1006.59 1006.83 1007.03 1007.23 1007.39 1007.55 1007.79 1007.99 1008.11 1008.27 1008.39 1008.55 1008.71 1008.91 1008.95 1009.03 1009.23 1009.39 1009.55
995.35 995.55 995.71 995.99 996.27 996.55 996.71 996.91 997.11 997.23 997.35 997.39 997.55 997.71 997.91 998.11 998.39 998.67 998.95 999.15 999.39 999.67 999.99 1000.27 1000.55 1000.79 1000.95 1001.11 1001.27 1001.47 1001.67 1001.91 1002.23 1002.55 1002.79 1002.91 1003.03 1003.23 1003.39 1003.55 1003.79 1004.03 1004.35 1004.67 1004.95 1005.23 1005.47 1005.71 1006.03 1006.27 1006.47 1006.67 1006.91 1007.11 1007.27 1007.47 1007.67 1007.79 1007.99 1008.15 1008.27 1008.47 1008.67 1008.79 1008.83 1008.95 1009.15 1009.27 1009.39
995.11 995.27 995.47 995.71 995.91 996.15 996.35 996.55 996.71 996.91 997.03 997.11 997.23 997.39 997.59 997.79 998.11 998.35 998.59 998.83 999.15 999.39 999.67 999.91 1000.23 1000.47 1000.71 1000.91 1001.11 1001.23 1001.39 1001.67 1001.99 1002.27 1002.55 1002.71 1002.91 1003.03 1003.23 1003.35 1003.59 1003.83 1004.15 1004.47 1004.79 1005.03 1005.23 1005.55 1005.83 1006.11 1006.27 1006.55 1006.71 1006.91 1007.11 1007.27 1007.55 1007.67 1007.83 1008.03 1008.15 1008.27 1008.47 1008.59 1008.71 1008.83 1009.03 1009.15 1009.27
995.15 995.11 995.15 995.35 995.55 995.67 995.83 996.03 996.27 996.47 996.67 996.79 996.95 997.15 997.35 997.55 997.79 998.03 998.27 998.59 998.83 999.03 999.23 999.47 999.79 1000.15 1000.39 1000.67 1000.91 1001.03 1001.23 1001.39 1001.67 1001.99 1002.35 1002.59 1002.79 1002.91 1003.03 1003.23 1003.39 1003.71 1004.03 1004.35 1004.59 1004.83 1005.11 1005.39 1005.59 1005.83 1006.11 1006.35 1006.59 1006.71 1006.91 1007.15 1007.39 1007.55 1007.71 1007.83 1008.03 1008.15 1008.23 1008.39 1008.59 1008.71 1008.83 1008.95 1009.11
995.79 995.39 995.15 995.11 995.15 995.27 995.47 995.67 995.83 996.11 996.27 996.55 996.71 996.91 997.11 997.27 997.47 997.79 998.03 998.35 998.47 998.67 998.91 999.23 999.47 999.83 1000.15 1000.39 1000.59 1000.83 1001.11 1001.27 1001.47 1001.67 1001.91 1002.27 1002.55 1002.71 1002.91 1003.11 1003.27 1003.59 1003.83 1004.11 1004.35 1004.67 1004.91 1005.15 1005.39 1005.71 1005.99 1006.23 1006.39 1006.59 1006.83 1007.11 1007.23 1007.39 1007.59 1007.71 1007.83 1007.99 1008.11 1008.27 1008.39 1008.55 1008.67 1008.83 1008.95
996.83 996.39 995.99 995.47 995.23 995.15 995.23 995.35 995.55 995.79 995.99 996.23 996.39 996.67 996.79 996.95 997.23 997.55 997.79 997.99 998.15 998.47 998.79 999.03 999.23 999.55 999.83 1000.11 1000.39 1000.67 1000.91 1001.11 1001.27 1001.47 1001.67 1001.91 1002.23 1002.55 1002.79 1003.03 1003.23 1003.47 1003.71 1003.91 1004.15 1004.47 1004.71 1004.95 1005.23 1005.47 1005.71 1006.11 1006.27 1006.55 1006.71 1006.95 1007.11 1007.23 1007.35 1007.55 1007.71 1007.83 1007.99 1008.11 1008.27 1008.39 1008.55 1008.71 1008.91
997.55 997.27 996.91 996.47 995.99 995.47 995.15 995.15 995.27 995.55 995.71 995.91 996.15 996.35 996.47 996.67 996.95 997.23 997.55 997.79 998.11 998.35 998.55 998.71 998.91 999.15 999.47 999.79 1000.15 1000.47 1000.71 1000.91 1001.15 1001.35 1001.47 1001.59 1001.83 1002.15 1002.47 1002.83 1003.11 1003.27 1003.55 1003.71 1003.99 1004.23 1004.55 1004.71 1004.95 1005.23 1005.55 1005.79 1006.11 1006.35 1006.59 1006.79 1006.95 1007.11 1007.27 1007.47 1007.59 1007.71 1007.83 1007.99 1008.15 1008.27 1008.39 1008.55 1008.71
997.47 997.35 997.27 997.15 996.91 996.27 995.55 995.15 995.15 995.35 995.55 995.71 995.91 996.03 996.23 996.47 996.71 997.03 997.35 997.67 997.91 998.11 998.27 998.47 998.71 998.95 999.15 999.39 999.79 1000.15 1000.39 1000.67 1000.95 1001.23 1001.39 1001.55 1001.67 1001.91 1002.15 1002.59 1002.91 1003.11 1003.35 1003.55 1003.79 1004.03 1004.27 1004.55 1004.79 1005.03 1005.27 1005.59 1005.83 1006.11 1006.39 1006.59 1006.79 1006.95 1007.11 1007.27 1007.47 1007.59 1007.71 1007.83 1008.03 1008.15 1008.27 1008.35 1008.55
997.39 997.35 997.27 997.27 997.27 997.03 996.39 995.59 995.23 995.23 995.35 995.55 995.71 995.91 996.11 996.39 996.59 996.83 997.15 997.39 997.67 997.91 998.15 998.35 998.55 998.79 998.95 999.15 999.55 999.83 1000.15 1000.47 1000.79 1001.03 1001.27 1001.47 1001.67 1001.79 1001.99 1002.23 1002.55 1002.91 1003.15 1003.39 1003.67 1003.91 1004.15 1004.35 1004.59 1004.83 1005.11 1005.35 1005.59 1005.91 1006.23 1006.39 1006.59 1006.79 1006.95 1007.11 1007.27 1007.39 1007.59 1007.67 1007.83 1007.99 1008.15 1008.23 1008.35
997.47 997.27 997.23 997.27 997.35 997.35 997.03 996.47 995.79 995.39 995.35 995.47 995.59 995.79 996.03 996.27 996.47 996.71 996.91 997.15 997.55 997.83 998.03 998.15 998.39 998.59 998.79 998.95 999.27 999.59 999.83 1000.15 1000.47 1000.83 1001.11 1001.35 1001.55 1001.71 1001.83 1002.03 1002.27 1002.59 1002.91 1003.23 1003.47 1003.71 1003.99 1004.23 1004.39 1004.67 1004.91 1005.15 1005.47 1005.71 1006.03 1006.23 1006.39 1006.59 1006.79 1006.95 1007.15 1007.27 1007.39 1007.55 1007.67 1007.83 1007.99 1008.03 1008.23
997.67 997.35 997.15 997.15 997.23 997.27 997.35 997.15 996.55 996.03 995.67 995.55 995.59 995.79 995.99 996.15 996.35 996.55 996.79 997.03 997.39 997.67 997.83 997.99 998.23 998.39 998.59 998.79 999.11 999.39 999.59 999.91 1000.23 1000.55 1000.83 1001.11 1001.39 1001.59 1001.79 1002.03 1002.15 1002.39 1002.71 1003.03 1003.27 1003.55 1003.79 1004.03 1004.27 1004.47 1004.71 1005.03 1005.27 1005.59 1005.83 1006.03 1006.23 1006.47 1006.67 1006.79 1006.95 1007.15 1007.27 1007.35 1007.47 1007.67 1007.79 1007.91 1008.11
997.83 997.47 997.23 997.11 997.11 997.23 997.35 997.35 997.15 996.67 996.03 995.67 995.55 995.67 995.83 996.03 996.23 996.47 996.71 996.95 997.23 997.47 997.67 997.83 998.03 998.27 998.47 998.67 998.91 999.23 999.47 999.71 999.99 1000.27 1000.59 1000.91 1001.23 1001.47 1001.67 1001.91 1002.11 1002.35 1002.59 1002.83 1003.11 1003.35 1003.59 1003.83 1004.11 1004.35 1004.59 1004.83 1005.11 1005.35 1005.59 1005.91 1006.11 1006.27 1006.47 1006.67 1006.79 1006.91 1007.03 1007.15 1007.35 1007.47 1007.67 1007.83 1008.03
997.99 997.59 997.27 997.11 997.11 997.15 997.23 997.27 997.35 996.95 996.35 995.79 995.47 995.55 995.79 995.99 996.15 996.39 996.59 996.83 997.03 997.27 997.55 997.71 997.99 998.15 998.27 998.47 998.71 999.03 999.35 999.59 999.91 1000.15 1000.39 1000.67 1000.91 1001.27 1001.55 1001.71 1001.91 1002.15 1002.39 1002.71 1002.95 1003.15 1003.39 1003.71 1003.99 1004.15 1004.39 1004.71 1004.91 1005.15 1005.39 1005.71 1005.91 1006.11 1006.27 1006.39 1006.55 1006.67 1006.79 1006.95 1007.15 1007.35 1007.55 1007.71 1007.83
998.11 997.71 997.39 997.15 997.11 997.11 997.15 997.15 997.23 997.15 996.71 995.99 995.55 995.47 995.67 995.91 996.11 996.27 996.47 996.71 996.91 997.11 997.35 997.59 997.83 998.03 998.23 998.39 998.59 998.91 999.23 999.55 999.79 1000.03 1000.27 1000.47 1000.71 1000.95 1001.23 1001.55 1001.71 1001.99 1002.23 1002.55 1002.79 1003.03 1003.23 1003.47 1003.71 1003.99 1004.23 1004.47 1004.71 1004.95 1005.23 1005.47 1005.71 1005.91 1006.11 1006.23 1006.27 1006.39 1006.59 1006.83 1006.95 1007.15 1007.35 1007.55 1007.67
998.15 997.83 997.55 997.23 997.11 997.11 997.11 997.03 997.15 997.23 996.91 996.23 995.55 995.35 995.55 995.71 995.91 996.15 996.39 996.59 996.83 997.03 997.15 997.39 997.67 997.99 998.23 998.39 998.59 998.83 999.11 999.39 999.71 999.99 1000.15 1000.35 1000.59 1000.83 1001.03 1001.27 1001.55 1001.79 1002.03 1002.27 1002.59 1002.83 1003.11 1003.35 1003.59 1003.83 1004.11 1004.35 1004.59 1004.83 1005.11 1005.35 1005.59 1005.79 1005.99 1006.11 1006.15 1006.27 1006.47 1006.59 1006.79 1006.95 1007.15 1007.27 1007.47
998.27 997.91 997.59 997.27 997.15 997.03 996.95 996.95 997.03 997.15 996.95 996.39 995.59 995.27 995.35 995.55 995.79 996.03 996.27 996.47 996.67 996.91 997.11 997.27 997.47 997.79 998.11 998.39 998.59 998.79 999.03 999.27 999.55 999.79 1000.03 1000.23 1000.39 1000.67 1000.91 1001.11 1001.35 1001.59 1001.83 1002.15 1002.39 1002.71 1002.95 1003.23 1003.47 1003.71 1003.91 1004.23 1004.47 1004.71 1004.95 1005.23 1005.39 1005.67 1005.83 1005.99 1006.03 1006.15 1006.35 1006.47 1006.59 1006.79 1006.95 1007.15 1007.27
998.35 997.99 997.59 997.35 997.23 997.11 997.03 997.03 996.95 996.95 996.83 996.47 995.71 995.27 995.23 995.39 995.67 995.91 996.15 996.35 996.47 996.71 996.95 997.15 997.35 997.59 997.99 998.27 998.55 998.71 998.91 999.15 999.35 999.59 999.79 999.99 1000.23 1000.47 1000.67 1000.91 1001.15 1001.39 1001.67 1001.99 1002.23 1002.55 1002.83 1003.15 1003.39 1003.59 1003.83 1004.11 1004.35 1004.59 1004.83 1005.03 1005.23 1005.47 1005.67 1005.79 1005.91 1006.11 1006.23 1006.39 1006.55 1006.67 1006.83 1006.95 1007.15
998.47 998.11 997.71 997.39 997.23 997.15 997.11 997.11 997.03 996.91 996.71 996.39 995.79 995.27 995.15 995.27 995.47 995.79 996.03 996.23 996.39 996.67 996.91 997.11 997.35 997.55 997.83 998.15 998.39 998.59 998.79 999.03 999.23 999.47 999.67 999.79 1000.03 1000.27 1000.55 1000.79 1001.03 1001.27 1001.55 1001.83 1002.11 1002.35 1002.67 1003.03 1003.27 1003.55 1003.79 1004.03 1004.23 1004.47 1004.71 1004.91 1005.15 1005.35 1005.47 1005.59 1005.83 1006.03 1006.15 1006.27 1006.39 1006.55 1006.67 1006.83 1006.91
998.59 998.27 997.83 997.47 997.23 997.03 996.83 996.91 997.03 996.95 996.79 996.47 995.83 995.35 995.15 995.27 995.39 995.67 995.91 996.15 996.35 996.55 996.79 997.03 997.27 997.55 997.71 997.99 998.27 998.47 998.67 998.91 999.15 999.47 999.67 999.71 999.91 1000.15 1000.39 1000.67 1000.91 1001.15 1001.39 1001.59 1001.91 1002.23 1002.55 1002.83 1003.11 1003.35 1003.59 1003.83 1004.11 1004.35 1004.59 1004.79 1004.95 1005.23 1005.35 1005.55 1005.71 1005.91 1006.03 1006.23 1006.35 1006.39 1006.55 1006.67 1006.79
998.67 998.35 998.03 997.71 997.27 996.83 996.67 996.67 996.79 996.83 996.83 996.59 996.11 995.59 995.35 995.35 995.47 995.59 995.83 996.11 996.35 996.55 996.79 997.03 997.23 997.39 997.67 997.91 998.23 998.39 998.59 998.71 999.11 999.47 999.67 999.71 999.79 999.99 1000.23 1000.47 1000.71 1000.95 1001.23 1001.47 1001.71 1002.03 1002.27 1002.59 1002.83 1003.15 1003.39 1003.67 1003.91 1004.15 1004.39 1004.59 1004.83 1005.11 1005.27 1005.39 1005.59 1005.79 1005.91 1006.03 1006.23 1006.35 1006.47 1006.55 1006.67
998.71 998.39 998.15 997.83 997.39 997.03 996.71 996.59 996.59 996.67 996.71 996.71 996.35 995.83 995.47 995.39 995.47 995.67 995.83 996.03 996.27 996.55 996.79 997.03 997.15 997.35 997.59 997.83 998.11 998.35 998.47 998.59 998.95 999.35 999.59 999.67 999.71 999.91 1000.11 1000.35 1000.59 1000.83 1001.11 1001.35 1001.67 1001.91 1002.15 1002.47 1002.71 1002.95 1003.23 1003.55 1003.79 1004.03 1004.27 1004.47 1004.71 1004.95 1005.15 1005.35 1005.55 1005.71 1005.83 1005.91 1006.11 1006.23 1006.35 1006.39 1006.59
998.79 998.47 998.15 997.83 997.47 997.11 996.83 996.59 996.67 996.83 996.91 996.83 996.55 995.99 995.59 995.47 995.55 995.67 995.83 996.03 996.27 996.55 996.71 996.95 997.15 997.35 997.59 997.79 997.99 998.15 998.35 998.55 998.91 999.27 999.55 999.67 999.79 999.99 1000.15 1000.35 1000.59 1000.83 1001.03 1001.27 1001.47 1001.71 1002.03 1002.39 1002.67 1002.83 1003.11 1003.35 1003.67 1003.91 1004.11 1004.35 1004.59 1004.83 1005.03 1005.23 1005.39 1005.59 1005.79 1005.83 1005.99 1006.11 1006.23 1006.27 1006.39
998.83 998.55 998.23 997.83 997.47 997.23 996.95 996.91 996.95 997.11 997.15 997.03 996.71 996.15 995.67 995.55 995.59 995.71 995.91 996.11 996.35 996.55 996.71 996.95 997.15 997.35 997.59 997.71 997.91 998.03 998.23 998.39 998.79 999.23 999.59 999.83 999.99 1000.03 1000.15 1000.39 1000.59 1000.79 1000.95 1001.15 1001.35 1001.67 1001.99 1002.27 1002.55 1002.79 1003.03 1003.27 1003.55 1003.79 1004.03 1004.23 1004.55 1004.71 1004.91 1005.11 1005.35 1005.55 1005.67 1005.79 1005.91 1006.03 1006.15 1006.27 1006.35
998.95 998.59 998.23 997.91 997.55 997.27 997.11 997.11 997.23 997.23 997.23 997.11 996.79 996.27 995.83 995.59 995.67 995.79 995.91 996.11 996.27 996.47 996.67 996.91 997.15 997.35 997.55 997.79 997.91 998.03 998.11 998.35 998.79 999.27 999.71 999.99 1000.11 1000.15 1000.23 1000.39 1000.55 1000.71 1000.91 1001.15 1001.47 1001.71 1001.91 1002.11 1002.35 1002.59 1002.91 1003.23 1003.47 1003.71 1003.99 1004.23 1004.39 1004.59 1004.79 1005.03 1005.23 1005.39 1005.59 1005.79 1005.83 1005.99 1006.11 1006.23 1006.35
999.03 998.59 998.23 997.91 997.59 997.35 997.23 997.15 997.23 997.23 997.15 997.03 996.79 996.35 995.83 995.59 995.59 995.71 995.91 996.11 996.27 996.47 996.67 996.91 997.15 997.35 997.55 997.71 997.83 998.03 998.23 998.47 998.91 999.35 999.79 1000.03 1000.11 1000.11 1000.15 1000.35 1000.55 1000.67 1000.83 1001.11 1001.39 1001.71 1001.99 1002.15 1002.27 1002.59 1002.83 1003.15 1003.39 1003.71 1003.99 1004.15 1004.35 1004.55 1004.71 1004.95 1005.23 1005.39 1005.59 1005.79 1005.83 1005.99 1006.03 1006.23 1006.35
999.03 998.59 998.23 997.91 997.67 997.47 997.23 997.03 996.95 997.03 997.11 997.03 996.83 996.27 995.71 995.47 995.59 995.79 995.91 996.11 996.27 996.47 996.79 997.11 997.23 997.39 997.55 997.67 997.91 998.15 998.47 998.71 999.11 999.47 999.79 999.91 999.99 1000.03 1000.15 1000.35 1000.47 1000.67 1000.83 1001.15 1001.39 1001.67 1001.91 1002.15 1002.35 1002.59 1002.83 1003.11 1003.39 1003.71 1003.99 1004.23 1004.39 1004.59 1004.79 1005.03 1005.23 1005.39 1005.59 1005.71 1005.91 1006.03 1006.11 1006.23 1006.35
999.11 998.67 998.23 997.83 997.67 997.47 997.27 997.11 996.91 996.91 997.03 997.11 996.83 996.27 995.67 995.47 995.55 995.71 995.91 996.11 996.23 996.59 996.91 997.23 997.27 997.39 997.59 997.79 998.03 998.35 998.67 998.95 999.27 999.55 999.71 999.83 999.99 1000.11 1000.23 1000.35 1000.47 1000.67 1000.95 1001.27 1001.47 1001.71 1001.99 1002.23 1002.47 1002.79 1003.03 1003.27 1003.55 1003.79 1004.03 1004.27 1004.55 1004.79 1004.95 1005.15 1005.35 1005.39 1005.47 1005.71 1005.83 1005.99 1006.11 1006.23 1006.35
999.15 998.71 998.27 997.91 997.59 997.39 997.27 997.11 996.95 996.95 997.03 997.03 996.83 996.39 995.91 995.55 995.47 995.59 995.83 996.03 996.27 996.59 996.83 997.11 997.27 997.47 997.67 998.03 998.27 998.59 998.83 999.15 999.35 999.47 999.67 999.99 1000.23 1000.27 1000.35 1000.47 1000.67 1000.95 1001.23 1001.47 1001.67 1001.91 1002.15 1002.39 1002.67 1002.95 1003.23 1003.47 1003.67 1004.03 1004.35 1004.67 1004.91 1005.23 1005.55 1005.79 1005.83 1005.99 1006.11 1006.15 1006.15 1006.15 1006.15 1006.23 1006.35
999.27 998.83 998.35 997.99 997.59 997.35 997.15 997.03 996.83 996.83 996.91 996.95 996.79 996.55 996.11 995.59 995.39 995.55 995.79 996.03 996.27 996.55 996.79 996.95 997.23 997.55 997.83 998.23 998.47 998.79 999.03 999.27 999.47 999.67 999.83 1000.15 1000.35 1000.47 1000.59 1000.71 1000.95 1001.27 1001.59 1001.79 1002.03 1002.23 1002.39 1002.71 1002.95 1003.27 1003.59 1003.91 1004.23 1004.59 1004.95 1005.27 1005.55 1005.83 1006.15 1006.39 1006.55 1006.59 1006.67 1006.67 1006.71 1006.71 1006.59 1006.47 1006.39
999.39 999.03 998.55 998.11 997.67 997.27 997.11 996.91 996.71 996.71 996.83 996.91 996.83 996.59 996.23 995.59 995.35 995.47 995.71 995.99 996.15 996.47 996.71 996.95 997.27 997.67 998.03 998.35 998.59 998.83 999.11 999.39 999.59 999.83 1000.27 1000.71 1000.95 1001.11 1001.11 1001.23 1001.39 1001.67 1001.83 1002.03 1002.35 1002.59 1002.79 1003.03 1003.27 1003.59 1003.83 1004.15 1004.59 1004.95 1005.35 1005.67 1005.99 1006.27 1006.59 1006.79 1006.95 1007.03 1007.11 1007.11 1007.23 1007.23 1007.11 1007.03 1007.03
999.47 999.11 998.71 998.23 997.71 997.35 997.03 996.83 996.71 996.71 996.79 996.83 996.79 996.67 996.27 995.67 995.39 995.47 995.67 995.99 996.27 996.55 996.83 997.15 997.47 997.83 998.23 998.39 998.67 998.83 999.15 999.67 1000.03 1000.39 1000.71 1000.95 1001.15 1001.35 1001.47 1001.59 1001.79 1002.03 1002.23 1002.35 1002.59 1002.83 1003.11 1003.35 1003.59 1003.83 1004.15 1004.47 1004.83 1005.27 1005.71 1006.03 1006.39 1006.71 1006.95 1007.27 1007.47 1007.59 1007.67 1007.79 1007.91 1007.83 1007.79 1007.71 1007.71
999.55 999.15 998.79 998.35 997.83 997.35 996.95 996.71 996.59 996.67 996.71 996.83 996.79 996.71 996.39 995.91 995.59 995.59 995.91 996.27 996.55 996.83 997.11 997.39 997.79 998.27 998.71 998.95 999.03 999.23 999.59 1000.15 1000.55 1000.83 1001.15 1001.39 1001.59 1001.79 1001.99 1002.23 1002.55 1002.67 1002.55 1002.55 1002.83 1003.11 1003.35 1003.59 1003.83 1004.15 1004.47 1004.79 1005.27 1005.71 1006.15 1006.47 1006.83 1007.15 1007.47 1007.79 1008.03 1008.23 1008.35 1008.39 1008.47 1008.47 1008.47 1008.47 1008.47
999.55 999.15 998.79 998.39 997.91 997.35 996.91 996.67 996.55 996.59 996.71 996.71 996.71 996.59 996.39 996.11 995.83 995.91 996.23 996.59 997.03 997.39 997.83 998.15 998.59 999.03 999.27 999.27 999.27 999.59 1000.03 1000.55 1000.91 1001.23 1001.39 1001.71 1001.99 1002.23 1002.55 1002.91 1003.27 1003.27 1003.03 1002.91 1003.03 1003.27 1003.59 1003.83 1004.15 1004.39 1004.71 1005.15 1005.67 1006.15 1006.59 1006.91 1007.27 1007.67 1007.99 1008.27 1008.47 1008.67 1008.79 1008.83 1008.95 1009.03 1009.11 1009.15 1009.15
999.47 999.15 998.71 998.35 997.83 997.35 996.83 996.55 996.55 996.59 996.59 996.59 996.59 996.67 996.67 996.47 996.27 996.39 996.83 997.27 997.67 998.11 998.55 998.95 999.27 999.47 999.47 999.47 999.59 999.91 1000.39 1000.91 1001.27 1001.59 1001.79 1002.03 1002.27 1002.67 1003.11 1003.55 1003.83 1003.91 1003.67 1003.39 1003.39 1003.59 1003.83 1004.03 1004.35 1004.67 1005.03 1005.47 1006.03 1006.55 1006.91 1007.35 1007.79 1008.15 1008.39 1008.67 1008.91 1009.11 1009.23 1009.39 1009.55 1009.67 1009.71 1009.79 1009.79
999.35 999.03 998.67 998.23 997.79 997.27 996.79 996.47 996.47 996.47 996.39 996.35 996.67 997.23 997.47 996.91 996.67 996.95 997.39 997.71 998.03 998.55 999.11 999.55 999.67 999.67 999.59 999.79 1000.15 1000.55 1000.95 1001.27 1001.59 1001.99 1002.23 1002.39 1002.59 1002.95 1003.47 1003.99 1004.23 1004.35 1004.27 1004.11 1003.99 1003.99 1004.11 1004.27 1004.55 1004.83 1005.23 1005.71 1006.35 1006.83 1007.27 1007.71 1008.15 1008.47 1008.71 1009.03 1009.35 1009.59 1009.79 1009.91 1010.11 1010.23 1010.27 1010.27 1010.35
999.11 998.79 998.47 998.11 997.67 997.15 996.71 996.47 996.39 996.35 996.35 996.35 996.95 997.71 997.83 997.23 997.11 997.27 997.55 997.83 998.39 999.03 999.59 999.83 999.79 999.71 999.79 1000.15 1000.71 1001.23 1001.59 1001.83 1002.03 1002.35 1002.67 1002.83 1002.95 1003.27 1003.71 1004.23 1004.55 1004.79 1004.83 1004.79 1004.59 1004.47 1004.55 1004.59 1004.79 1005.03 1005.39 1005.99 1006.59 1007.11 1007.55 1007.99 1008.47 1008.79 1009.11 1009.47 1009.79 1010.03 1010.23 1010.39 1010.59 1010.71 1010.83 1010.91 1010.91
998.71 998.39 998.15 997.83 997.47 997.03 996.67 996.47 996.39 996.35 996.39 996.67 997.39 997.91 997.99 997.59 997.59 997.71 997.91 998.15 998.67 999.35 999.91 999.99 999.91 999.91 1000.15 1000.67 1001.27 1001.79 1002.15 1002.39 1002.59 1002.79 1003.03 1003.27 1003.47 1003.59 1003.99 1004.39 1004.83 1005.11 1005.23 1005.23 1005.11 1005.03 1004.95 1005.03 1005.11 1005.23 1005.59 1006.15 1006.79 1007.35 1007.79 1008.27 1008.71 1009.11 1009.47 1009.83 1010.23 1010.47 1010.71 1010.83 1011.03 1011.23 1011.35 1011.47 1011.55
998.39 998.03 997.71 997.39 997.11 996.83 996.67 996.55 996.59 996.67 996.83 997.15 997.79 998.15 998.27 998.23 998.27 998.39 998.55 998.59 998.91 999.39 999.91 999.99 1000.03 1000.23 1000.59 1001.11 1001.71 1002.35 1002.79 1003.03 1003.15 1003.35 1003.55 1003.79 1004.03 1004.15 1004.27 1004.71 1005.15 1005.47 1005.67 1005.67 1005.55 1005.47 1005.47 1005.55 1005.55 1005.67 1005.91 1006.39 1006.95 1007.55 1008.03 1008.47 1008.95 1009.39 1009.83 1010.23 1010.55 1010.91 1011.15 1011.35 1011.55 1011.71 1011.91 1012.03 1012.03
998.27 997.83 997.47 997.11 996.83 996.71 996.67 996.79 997.03 997.23 997.39 997.71 998.15 998.55 998.83 999.03 999.23 999.27 999.27 999.23 999.35 999.67 999.91 999.99 1000.23 1000.59 1001.03 1001.55 1002.15 1002.79 1003.35 1003.67 1003.91 1004.11 1004.23 1004.39 1004.59 1004.71 1004.79 1005.03 1005.47 1005.79 1006.03 1006.03 1005.99 1005.91 1005.91 1005.99 1005.99 1006.11 1006.35 1006.71 1007.23 1007.71 1008.15 1008.67 1009.15 1009.67 1010.15 1010.47 1010.83 1011.15 1011.55 1011.79 1011.99 1012.15 1012.35 1012.47 1012.59
998.11 997.67 997.27 996.91 996.67 996.55 996.71 997.11 997.55 997.71 997.99 998.27 998.55 998.91 999.35 999.71 999.99 1000.11 1000.03 999.91 999.91 1000.03 1000.11 1000.15 1000.47 1000.91 1001.35 1001.83 1002.47 1003.11 1003.59 1004.11 1004.55 1004.79 1004.91 1004.95 1005.11 1005.23 1005.35 1005.55 1005.79 1006.11 1006.35 1006.47 1006.39 1006.39 1006.39 1006.39 1006.47 1006.59 1006.79 1007.11 1007.59 1007.99 1008.35 1008.71 1009.27 1009.91 1010.47 1010.83 1011.11 1011.39 1011.79 1012.11 1012.39 1012.59 1012.79 1012.95 1013.11
Thickness
5663 5664 5664 5664 5665 5664 5665 5665 5666 5667 5667 5668 5668 5669 5669 5669 5669 5669 5669 5668 5668 5667 5665 5664 5663 5662 5661 5660 5659 5658 5657 5656 5655 5654 5653 5652 5652 5651 5650 5649 5648 5646 5644 5643 5641 5639 5637 5636 5633 5632 5630 5629 5628 5627 5625 5624 5623 5621 5620 5619 5618 5617 5616 5615 5614 5613 5613 5611 5610
5663 5663 5664 5664 5664 5664 5664 5664 5664 5665 5666 5667 5668 5669 5669 5669 5669 5669 5668 5668 5667 5666 5665 5662 5661 5660 5660 5659 5658 5658 5657 5656 5654 5653 5651 5650 5650 5649 5649 5648 5647 5645 5644 5641 5639 5638 5636 5635 5632 5631 5629 5628 5627 5626 5624 5623 5622 5620 5619 5618 5617 5615 5614 5614 5613 5613 5611 5610 5608
5662 5663 5663 5663 5662 5662 5663 5663 5663 5665 5665 5666 5667 5668 5668 5669 5668 5669 5668 5668 5667 5665 5664 5662 5660 5659 5659 5658 5657 5656 5656 5655 5653 5652 5650 5649 5649 5648 5648 5647 5646 5644 5642 5640 5638 5637 5635 5634 5631 5630 5629 5627 5626 5624 5623 5622 5620 5619 5618 5617 5615 5614 5613 5613 5612 5611 5610 5609 5608
5661 5661 5662 5662 5662 5662 5663 5663 5664 5664 5665 5666 5666 5667 5667 5667 5668 5668 5667 5667 5666 5665 5663 5662 5660 5659 5658 5657 5657 5656 5656 5654 5653 5651 5649 5648 5648 5647 5646 5645 5644 5643 5641 5639 5637 5636 5634 5632 5630 5629 5628 5626 5625 5623 5622 5620 5619 5618 5617 5615 5615 5614 5613 5612 5611 5610 5609 5608 5607
5657 5659 5661 5661 5662 5663 5663 5664 5664 5664 5665 5665 5665 5666 5666 5666 5667 5667 5667 5666 5665 5665 5664 5663 5661 5659 5657 5656 5656 5655 5655 5654 5652 5650 5648 5646 5646 5645 5645 5644 5643 5642 5640 5638 5637 5635 5633 5631 5629 5628 5627 5625 5624 5622 5621 5619 5618 5617 5616 5615 5614 5613 5612 5611 5610 5609 5609 5607 5606
5646 5653 5657 5660 5661 5663 5663 5664 5664 5664 5664 5664 5664 5665 5665 5666 5665 5666 5666 5665 5665 5665 5663 5662 5661 5659 5657 5656 5655 5654 5653 5652 5651 5650 5648 5646 5644 5643 5643 5642 5641 5641 5639 5637 5635 5634 5632 5630 5629 5627 5626 5624 5623 5621 5619 5618 5616 5616 5615 5614 5613 5612 5612 5611 5610 5609 5607 5607 5606
5632 5638 5646 5653 5658 5660 5661 5662 5663 5664 5663 5663 5663 5664 5664 5665 5665 5665 5665 5665 5664 5663 5662 5661 5660 5659 5657 5656 5654 5653 5652 5651 5650 5649 5648 5646 5644 5643 5641 5640 5639 5638 5637 5636 5635 5633 5631 5630 5628 5626 5625 5623 5621 5619 5617 5616 5616 5615 5614 5613 5612 5611 5610 5610 5609 5608 5607 5606 5605
5621 5626 5632 5639 5647 5653 5657 5660 5661 5662 5662 5662 5662 5663 5663 5664 5664 5664 5663 5663 5662 5662 5661 5660 5660 5659 5657 5655 5653 5652 5651 5649 5649 5648 5647 5646 5644 5643 5641 5639 5638 5637 5636 5636 5634 5632 5630 5629 5627 5626 5624 5621 5620 5618 5616 5615 5614 5613 5612 5612 5610 5610 5609 5608 5607 5607 5606 5605 5604
5619 5622 5625 5628 5633 5641 5650 5655 5657 5659 5659 5660 5660 5661 5662 5662 5662 5662 5662 5661 5661 5660 5659 5659 5658 5658 5657 5655 5653 5651 5649 5648 5646 5646 5645 5645 5644 5642 5640 5639 5637 5636 5635 5634 5633 5632 5630 5628 5626 5625 5623 5621 5620 5618 5616 5614 5613 5612 5611 5610 5609 5608 5607 5607 5606 5606 5605 5604 5603
5618 5620 5623 5624 5625 5629 5637 5647 5653 5656 5657 5658 5659 5659 5659 5660 5660 5661 5660 5660 5659 5658 5657 5657 5657 5656 5655 5655 5652 5650 5649 5647 5645 5644 5643 5642 5642 5641 5640 5639 5637 5635 5635 5633 5632 5630 5629 5627 5626 5624 5622 5620 5619 5617 5615 5613 5612 5610 5610 5608 5608 5607 5606 5606 5605 5605 5604 5603 5603
5616 5619 5621 5622 5623 5624 5628 5636 5645 5651 5654 5654 5655 5656 5656 5657 5658 5658 5658 5658 5657 5656 5656 5655 5655 5654 5654 5653 5651 5650 5648 5646 5644 5642 5641 5640 5639 5639 5638 5638 5637 5635 5634 5632 5631 5629 5627 5626 5625 5623 5621 5620 5618 5616 5614 5613 5611 5610 5608 5608 5607 5606 5605 5605 5605 5603 5603 5602 5602
5612 5616 5619 5620 5621 5622 5623 5626 5634 5642 5647 5650 5652 5653 5653 5654 5655 5655 5655 5655 5654 5654 5654 5654 5653 5652 5652 5652 5650 5649 5647 5645 5644 5642 5640 5638 5638 5637 5636 5636 5635 5634 5632 5631 5629 5627 5626 5625 5623 5622 5620 5619 5617 5615 5613 5612 5610 5609 5608 5607 5606 5605 5605 5604 5603 5603 5602 5601 5600
5608 5613 5616 5619 5620 5621 5621 5622 5627 5634 5641 5646 5648 5649 5651 5652 5652 5653 5653 5653 5652 5652 5651 5651 5650 5650 5650 5650 5648 5647 5645 5644 5642 5640 5639 5637 5636 5635 5634 5633 5633 5632 5631 5630 5628 5627 5625 5624 5622 5621 5619 5618 5616 5614 5613 5611 5610 5608 5608 5606 5605 5604 5604 5603 5603 5601 5601 5599 5599
5604 5609 5613 5616 5618 5619 5620 5622 5623 5627 5634 5642 5645 5647 5648 5649 5650 5650 5651 5650 5651 5650 5650 5648 5648 5648 5648 5647 5646 5645 5643 5641 5640 5639 5638 5637 5635 5634 5633 5632 5632 5631 5630 5629 5627 5626 5625 5623 5621 5620 5618 5617 5615 5614 5612 5610 5609 5608 5607 5606 5605 5604 5604 5603 5602 5600 5599 5599 5598
5600 5604 5608 5612 5615 5617 5619 5620 5621 5624 5630 5637 5643 5646 5646 5647 5648 5649 5648 5648 5648 5648 5648 5647 5646 5645 5645 5645 5644 5642 5640 5639 5638 5637 5636 5636 5634 5633 5632 5631 5631 5630 5629 5628 5626 5625 5624 5622 5621 5619 5617 5615 5614 5613 5611 5609 5608 5607 5606 5605 5605 5604 5603 5602 5601 5600 5599 5597 5596
5595 5599 5604 5608 5612 5614 5616 5619 5620 5621 5625 5633 5640 5644 5645 5645 5646 5647 5646 5646 5646 5646 5646 5645 5644 5643 5642 5641 5641 5640 5639 5637 5636 5635 5634 5634 5633 5632 5632 5631 5630 5629 5628 5627 5625 5624 5622 5621 5619 5618 5616 5615 5613 5611 5610 5608 5607 5605 5605 5605 5604 5603 5603 5601 5600 5599 5598 5597 5596
5591 5595 5600 5604 5608 5611 5614 5617 5618 5619 5622 5630 5639 5643 5643 5644 5644 5644 5644 5644 5644 5644 5644 5643 5642 5641 5639 5638 5638 5638 5637 5636 5635 5634 5633 5633 5632 5631 5630 5630 5629 5628 5627 5626 5624 5622 5621 5619 5618 5616 5615 5613 5612 5610 5609 5607 5605 5604 5603 5603 5602 5602 5601 5600 5599 5598 5597 5596 5595
5587 5591 5596 5600 5604 5609 5611 5613 5616 5617 5620 5627 5636 5641 5642 5642 5643 5642 5642 5642 5642 5642 5641 5641 5640 5639 5638 5635 5635 5635 5635 5634 5634 5633 5632 5632 5631 5630 5630 5629 5628 5627 5626 5625 5624 5622 5620 5618 5616 5615 5613 5612 5610 5608 5607 5606 5604 5603 5602 5602 5601 5600 5599 5599 5598 5597 5596 5595 5594
5583 5587 5592 5597 5601 5605 5607 5609 5611 5614 5617 5623 5632 5638 5640 5641 5641 5640 5640 5640 5640 5640 5639 5639 5638 5637 5636 5635 5634 5633 5633 5633 5632 5632 5631 5631 5630 5629 5628 5628 5627 5626 5625 5623 5622 5621 5619 5617 5615 5613 5612 5610 5609 5607 5606 5604 5603 5602 5601 5600 5599 5599 5598 5598 5597 5596 5595 5594 5593
5580 5584 5589 5593 5599 5603 5606 5607 5608 5610 5614 5621 5629 5635 5638 5638 5638 5638 5638 5637 5637 5637 5637 5636 5636 5635 5634 5633 5632 5632 5632 5631 5630 5629 5629 5629 5628 5628 5627 5626 5626 5625 5624 5623 5621 5619 5617 5616 5614 5612 5611 5609 5608 5606 5605 5604 5602 5601 5600 5599 5598 5598 5596 5596 5595 5595 5594 5593 5592
5576 5580 5584 5590 5596 5601 5604 5607 5608 5609 5611 5617 5625 5630 5632 5632 5635 5636 5635 5636 5635 5634 5633 5633 5633 5633 5632 5631 5631 5630 5629 5629 5627 5625 5625 5626 5627 5627 5626 5626 5625 5624 5623 5621 5619 5618 5616 5615 5614 5612 5611 5609 5607 5606 5604 5603 5601 5600 5600 5598 5598 5596 5596 5595 5594 5593 5593 5592 5591
5573 5577 5581 5586 5591 5596 5602 5606 5608 5609 5610 5614 5619 5624 5628 5630 5631 5632 5633 5632 5632 5631 5631 5631 5630 5630 5630 5629 5629 5628 5627 5627 5625 5624 5624 5625 5624 5625 5625 5623 5623 5622 5621 5619 5618 5617 5615 5614 5613 5611 5610 5608 5607 5605 5604 5602 5601 5600 5598 5597 5597 5595 5594 5594 5593 5592 5592 5591 5590
5569 5574 5578 5582 5587 5593 5599 5604 5605 5605 5606 5609 5615 5620 5624 5626 5627 5629 5629 5629 5629 5629 5629 5628 5628 5627 5627 5627 5626 5626 5626 5625 5623 5621 5621 5622 5622 5621 5621 5621 5621 5620 5619 5618 5617 5616 5615 5613 5612 5610 5609 5607 5606 5605 5603 5602 5600 5599 5597 5597 5595 5594 5593 5592 5591 5591 5590 5590 5588
5566 5570 5574 5579 5584 5590 5595 5598 5600 5602 5604 5607 5612 5617 5620 5621 5624 5625 5625 5626 5627 5627 5627 5627 5625 5625 5625 5625 5625 5624 5623 5622 5621 5619 5617 5617 5618 5618 5618 5618 5618 5617 5617 5617 5615 5614 5613 5612 5611 5609 5608 5606 5605 5604 5602 5601 5600 5599 5597 5596 5594 5593 5592 5590 5590 5589 5589 5588 5587
5562 5566 5571 5576 5582 5587 5590 5592 5597 5603 5607 5608 5610 5613 5617 5619 5621 5622 5623 5624 5625 5625 5625 5624 5623 5623 5622 5621 5622 5621 5621 5621 5620 5618 5615 5614 5615 5616 5617 5616 5616 5616 5615 5615 5613 5612 5611 5610 5609 5608 5606 5605 5603 5602 5601 5600 5599 5597 5596 5595 5593 5592 5591 5589 5588 5588 5587 5587 5585
5559 5563 5568 5573 5579 5583 5586 5590 5593 5599 5606 5609 5608 5611 5614 5616 5619 5620 5621 5622 5622 5622 5621 5621 5620 5620 5620 5620 5619 5619 5619 5618 5617 5615 5613 5610 5612 5614 5615 5616 5615 5615 5614 5613 5611 5610 5609 5608 5607 5606 5604 5603 5602 5600 5599 5598 5597 5596 5594 5593 5592 5590 5589 5588 5587 5586 5585 5585 5584
5556 5561 5566 5571 5576 5580 5584 5587 5590 5593 5597 5603 5605 5608 5612 5615 5617 5618 5618 5619 5619 5619 5618 5617 5617 5617 5617 5616 5616 5615 5615 5616 5614 5611 5610 5610 5611 5612 5613 5613 5613 5613 5612 5610 5609 5607 5606 5605 5604 5604 5603 5602 5600 5598 5597 5596 5595 5593 5592 5591 5590 5588 5587 5585 5585 5583 5582 5582 5581
5553 5559 5564 5569 5574 5577 5581 5584 5587 5589 5591 5596 5601 5606 5611 5614 5615 5616 5616 5616 5616 5615 5614 5613 5614 5614 5614 5613 5612 5612 5612 5611 5609 5607 5607 5610 5609 5608 5609 5610 5611 5610 5608 5607 5606 5605 5604 5603 5601 5600 5599 5598 5597 5596 5594 5594 5593 5591 5590 5588 5588 5587 5586 5584 5583 5582 5580 5580 5579
5550 5556 5561 5567 5571 5575 5579 5581 5584 5587 5590 5596 5602 5606 5608 5613 5613 5613 5612 5613 5612 5611 5611 5610 5611 5611 5610 5608 5609 5609 5608 5606 5604 5603 5604 5604 5604 5604 5606 5607 5607 5605 5604 5603 5603 5602 5601 5600 5598 5597 5596 5595 5595 5593 5591 5589 5587 5585 5583 5581 5580 5580 5579 5578 5578 5578 5579 5578 5576
5547 5553 5558 5564 5569 5573 5577 5580 5582 5584 5587 5593 5603 5606 5607 5609 5610 5610 5610 5610 5610 5609 5608 5609 5609 5608 5606 5604 5605 5605 5603 5601 5600 5601 5601 5600 5601 5602 5603 5603 5602 5600 5599 5599 5599 5598 5598 5597 5595 5593 5591 5590 5587 5585 5582 5581 5579 5577 5575 5573 5572 5572 5572 5571 5571 5571 5572 5574 5574
5543 5549 5554 5560 5566 5570 5574 5577 5580 5582 5584 5587 5594 5601 5604 5605 5606 5608 5607 5607 5607 5607 5607 5607 5605 5604 5603 5602 5602 5602 5600 5597 5597 5597 5595 5593 5593 5595 5597 5598 5597 5595 5594 5594 5594 5593 5593 5592 5591 5589 5588 5586 5584 5581 5578 5575 5574 5571 5569 5568 5567 5566 5566 5565 5564 5565 5566 5567 5567
5540 5545 5550 5556 5562 5567 5571 5574 5577 5580 5581 5583 5585 5591 5598 5601 5604 5605 5604 5604 5603 5603 5602 5601 5601 5600 5599 5599 5599 5598 5595 5592 5590 5590 5590 5590 5590 5591 5591 5592 5591 5589 5589 5590 5590 5589 5588 5588 5586 5586 5584 5582 5579 5576 5573 5570 5568 5566 5563 5562 5560 5559 5558 5557 5557 5557 5558 5559 5559
5536 5541 5546 5552 5557 5563 5568 5572 5575 5577 5578 5580 5581 5587 5593 5598 5601 5601 5600 5599 5600 5599 5598 5597 5596 5593 5591 5592 5592 5591 5589 5587 5586 5586 5586 5585 5585 5585 5584 5584 5582 5583 5584 5586 5586 5585 5584 5583 5582 5581 5579 5577 5573 5570 5567 5565 5562 5560 5557 5555 5553 5552 5552 5551 5551 5551 5551 5551 5551
5533 5538 5543 5548 5554 5560 5566 5571 5573 5575 5576 5577 5580 5586 5592 5596 5598 5598 5596 5594 5592 5589 5587 5587 5586 5584 5584 5587 5588 5587 5586 5584 5582 5581 5581 5580 5580 5578 5577 5576 5574 5575 5578 5581 5582 5581 5580 5579 5578 5576 5574 5571 5568 5564 5561 5559 5556 5553 5551 5549 5548 5547 5546 5545 5544 5544 5544 5543 5543
5531 5535 5540 5546 5551 5558 5564 5568 5570 5572 5573 5574 5578 5587 5595 5594 5591 5589 5587 5583 5581 5580 5578 5578 5578 5579 5581 5583 5584 5582 5580 5578 5577 5576 5576 5575 5574 5573 5571 5569 5567 5569 5572 5575 5577 5577 5576 5575 5574 5572 5570 5566 5562 5559 5556 5553 5550 5547 5545 5544 5542 5541 5540 5539 5538 5537 5537 5536 5537
5529 5534 5539 5544 5550 5556 5561 5565 5567 5567 5568 5569 5573 5581 5588 5587 5584 5580 5578 5578 5576 5574 5573 5572 5573 5576 5578 5578 5577 5576 5574 5573 5572 5571 5570 5570 5569 5568 5566 5564 5562 5563 5565 5568 5570 5572 5572 5571 5570 5568 5566 5562 5558 5554 5551 5548 5545 5542 5541 5539 5537 5535 5534 5533 5532 5531 5530 5530 5530
5529 5534 5538 5543 5548 5554 5559 5562 5563 5564 5565 5565 5564 5570 5578 5580 5577 5575 5575 5576 5573 5569 5568 5567 5570 5574 5574 5573 5570 5569 5567 5567 5567 5565 5564 5565 5565 5564 5562 5559 5558 5558 5558 5561 5563 5566 5566 5566 5565 5564 5562 5559 5554 5549 5547 5544 5540 5538 5536 5534 5532 5530 5528 5527 5526 5526 5525 5524 5524
5530 5534 5538 5542 5547 5552 5556 5558 5561 5562 5562 5560 5558 5564 5571 5572 5570 5569 5570 5572 5569 5566 5564 5566 5568 5570 5569 5567 5564 5561 5560 5560 5561 5561 5560 5559 5559 5559 5557 5555 5553 5552 5553 5554 5557 5559 5559 5560 5560 5560 5558 5555 5550 5546 5543 5540 5536 5534 5531 5529 5526 5524 5523 5522 5521 5520 5519 5518 5519
5530 5535 5539 5542 5546 5550 5553 5555 5556 5556 5555 5553 5555 5561 5563 5562 5562 5563 5564 5567 5565 5563 5562 5564 5565 5565 5563 5562 5558 5556 5553 5553 5554 5554 5554 5552 5552 5553 5553 5550 5549 5547 5548 5549 5551 5552 5553 5554 5555 5555 5553 5550 5546 5542 5539 5536 5533 5529 5527 5524 5521 5519 5517 5516 5516 5515 5513 5513 5513
5529 5534 5538 5542 5546 5547 5549 5549 5547 5547 5547 5546 5549 5554 5555 5553 5554 5555 5557 5561 5561 5560 5561 5562 5562 5560 5558 5556 5553 5550 5548 5547 5546 5546 5546 5546 5546 5546 5547 5546 5544 5543 5543 5544 5545 5546 5547 5548 5549 5549 5547 5545 5542 5538 5535 5533 5529 5525 5522 5520 5517 5516 5513 5511 5510 5509 5509 5507 5507
5528 5533 5536 5540 5543 5545 5544 5542 5540 5540 5540 5540 5540 5545 5549 5547 5547 5548 5550 5553 5555 5557 5558 5559 5557 5555 5554 5552 5548 5545 5543 5540 5539 5538 5539 5539 5540 5540 5539 5540 5539 5538 5538 5538 5539 5540 5542 5542 5543 5542 5541 5540 5537 5534 5532 5530 5526 5521 5518 5515 5513 5512 5509 5507 5505 5504 5503 5502 5501